Waarnemingen

Advertentie
Mijn weer
Saarbrücken-Ensheim, Duitsland (10708): temperatuur & dauwpunt: 13.10.2017 12:00:00 - 19.10.2017 12:00:00 (CEST)Saarbrücken-Ensheim, Duitsland (10708): temperatuur 5cm & temperatuur -5cm: 13.10.2017 12:00:00 - 19.10.2017 12:00:00 (CEST)Saarbrücken-Ensheim, Duitsland (10708): temperatuur -20cm & temperatuur -100cm: 13.10.2017 12:00:00 - 19.10.2017 12:00:00 (CEST)Saarbrücken-Ensheim, Duitsland (10708): windsnelheid & windstoten: 13.10.2017 12:00:00 - 19.10.2017 12:00:00 (CEST)Saarbrücken-Ensheim, Duitsland (10708): windrichting: 13.10.2017 12:00:00 - 19.10.2017 12:00:00 (CEST)Saarbrücken-Ensheim, Duitsland (10708): luchtdruk: 13.10.2017 12:00:00 - 19.10.2017 12:00:00 (CEST)Saarbrücken-Ensheim, Duitsland (10708): zicht: 13.10.2017 12:00:00 - 19.10.2017 12:00:00 (CEST)Saarbrücken-Ensheim, Duitsland (10708): Zonneschijnduur: 13.10.2017 12:00:00 - 19.10.2017 12:00:00 (CEST)Saarbrücken-Ensheim, Duitsland (10708): neerslag: 13.10.2017 12:00:00 - 19.10.2017 12:00:00 (CEST)
Datum & Tijd tt [°C] td [°C] tt 5cm [°C] tt -5cm [°C] tt -20cm [°C] tt -100cm [°C] ff [km/u] ff [kn] fx [km/u] fx [kn] dd ppp [hPa] vv [km] sd [min] rr [mm]
19.10.2017 12:00:00 18,4 10,0 21,3 13,3 12,4 14,3 13 7 18 10 ZZW 1013,4 10 29 0,0
19.10.2017 11:00:00 16,1 9,8 16,1 11,7 12,3 14,3 9 5 16 9 Z 1013,8 10 18 0,0
19.10.2017 10:00:00 14,4 11,2 12,7 10,2 12,3 14,3 5 3 9 5 O 1013,7 10 60 0,0
19.10.2017 09:00:00 9,9 8,6 8,5 9,6 12,4 14,3 5 3 9 5 ONO 1014,0 10 23 0,0
19.10.2017 08:00:00 9,0 7,8 6,6 9,7 12,6 14,3 5 3 8 4 ONO 1013,7 10 0 0,0
19.10.2017 07:00:00 9,0 8,0 6,6 9,8 12,7 14,3 5 3 8 4 ONO 1014,0 10 0 0,0
19.10.2017 06:00:00 9,1 8,2 6,4 10,1 12,9 14,3 5 3 8 4 ONO 1013,9 10 0 0,0
19.10.2017 05:00:00 10,0 8,4 7,4 10,3 13,1 14,3 5 3 8 4 NO 1013,9 10 0 0,0
19.10.2017 04:00:00 10,3 8,1 7,1 10,3 13,3 14,3 5 3 8 4 O 1013,9 10 0 0,0
19.10.2017 03:00:00 10,5 8,4 6,4 10,6 13,5 14,3 5 3 9 5 O 1014,2 10 0 0,0
19.10.2017 02:00:00 9,9 7,4 5,9 11,0 13,8 14,3 5 3 8 4 O 1014,4 10 0 0,0
19.10.2017 01:00:00 11,0 8,9 6,9 11,4 14,0 14,3 4 2 5 3 ZO 1014,4 10 0 0,0
19.10.2017 00:00:00 11,0 8,5 6,7 11,9 14,3 14,3 2 1 8 4 ONO 1014,7 10 0 0,0
18.10.2017 23:00:00 12,2 9,2 7,9 12,4 14,5 14,3 5 3 8 4 O 1014,5 10 0 0,0
18.10.2017 22:00:00 12,0 9,8 8,4 13,0 14,8 14,3 5 3 8 4 O 1014,4 10 0 0,0
18.10.2017 21:00:00 12,8 9,8 7,9 13,9 15,1 14,3 4 2 9 5 O 1014,4 10 0 0,0
18.10.2017 20:00:00 12,7 9,7 9,2 14,9 15,3 14,3 8 4 9 5 O 1014,4 10 0 0,0
18.10.2017 19:00:00 15,1 10,0 10,3 16,3 15,4 14,3 2 1 13 7 - 1014,0 10 20 0,0
18.10.2017 18:00:00 18,3 9,9 15,8 17,8 15,3 14,3 13 7 26 14 ZW 1013,6 10 60 0,0
18.10.2017 17:00:00 19,8 9,9 20,0 19,3 14,9 14,3 21 11 35 19 ZW 1013,6 10 60 0,0
18.10.2017 16:00:00 20,2 11,0 22,9 19,3 14,3 14,3 16 9 27 15 ZW 1013,7 10 60 0,0
18.10.2017 15:00:00 19,8 10,5 23,8 18,2 13,8 14,3 15 8 31 17 ZZW 1014,2 10 59 0,0
18.10.2017 14:00:00 17,7 11,0 20,8 16,9 13,3 14,3 13 7 22 12 ZW 1015,3 10 53 0,0
18.10.2017 13:00:00 17,3 10,9 19,4 15,6 12,8 14,3 11 6 25 14 Z 1015,7 10 60 0,0
18.10.2017 12:00:00 15,5 10,3 16,8 13,6 12,5 14,3 18 10 28 15 ZZW 1016,3 10 58 0,0
18.10.2017 11:00:00 14,9 10,1 18,8 11,6 12,4 14,3 15 8 22 12 ZW 1016,5 10 59 0,0
18.10.2017 10:00:00 13,8 9,5 12,2 10,1 12,5 14,3 16 9 29 16 ZW 1016,6 10 50 0,0
18.10.2017 09:00:00 11,8 8,0 10,1 9,9 12,6 14,3 18 10 26 14 ZZW 1016,9 10 9 0,0
18.10.2017 08:00:00 11,5 7,8 9,0 9,8 12,8 14,3 13 7 22 12 ZZW 1016,8 10 0 0,0
18.10.2017 07:00:00 11,4 7,7 7,5 9,9 12,9 14,3 11 6 22 12 ZZW 1017,0 10 0 0,0
18.10.2017 06:00:00 11,6 7,7 7,4 9,9 13,2 14,3 13 7 21 11 ZZW 1017,0 10 0 0,0
18.10.2017 05:00:00 12,6 7,1 7,2 10,1 13,4 14,3 11 6 20 11 Z 1017,0 10 0 0,0
18.10.2017 04:00:00 10,2 8,9 5,6 10,4 13,7 14,3 11 6 16 9 ZZO 1017,5 10 0 0,0
18.10.2017 03:00:00 9,3 8,5 5,3 10,8 14,0 14,3 5 3 9 5 ONO 1018,2 10 0 0,0
18.10.2017 02:00:00 10,5 8,9 6,8 11,3 14,2 14,3 8 4 9 5 ONO 1017,8 10 0 0,0
18.10.2017 01:00:00 11,2 9,5 7,3 11,8 14,6 14,3 8 4 11 6 ONO 1018,1 10 0 0,0
18.10.2017 00:00:00 11,7 10,4 8,1 12,4 14,9 14,3 5 3 15 8 ONO 1018,3 10 0 0,0
17.10.2017 23:00:00 12,0 10,9 8,1 13,2 15,2 14,3 5 3 9 5 ONO 1018,7 10 0 0,0
17.10.2017 22:00:00 13,0 11,5 8,5 14,0 15,5 14,3 5 3 9 5 O 1019,0 10 0 0,0
17.10.2017 21:00:00 13,3 11,2 9,0 15,1 15,8 14,3 4 2 5 3 ONO 1019,2 10 0 0,0
17.10.2017 20:00:00 14,9 12,8 10,8 16,3 15,9 14,3 4 2 8 4 OZO 1019,2 10 0 0,0
17.10.2017 19:00:00 16,9 12,5 12,6 17,9 15,9 14,3 4 2 4 2 - 1019,0 10 5 0,0
17.10.2017 18:00:00 20,0 12,6 17,3 19,2 15,7 14,3 4 2 8 4 ZO 1018,8 10 32 0,0
17.10.2017 17:00:00 21,1 11,8 21,3 20,1 15,3 14,3 5 3 9 5 ZZW 1019,1 10 59 0,0
17.10.2017 16:00:00 21,1 11,8 23,3 20,2 14,8 14,3 4 2 9 5 - 1019,6 10 60 0,0
17.10.2017 15:00:00 20,3 11,4 22,5 19,2 14,2 14,3 8 4 13 7 Z 1020,4 10 60 0,0
17.10.2017 14:00:00 19,7 10,7 21,8 18,3 13,6 14,3 8 4 12 7 Z 1021,4 10 60 0,0
17.10.2017 13:00:00 19,1 11,5 23,7 16,4 13,1 14,3 8 4 13 7 ZZO 1022,3 10 60 0,0
17.10.2017 12:00:00 16,8 10,5 20,3 14,3 12,8 14,3 9 5 15 8 ZZW 1023,3 10 60 0,0
17.10.2017 11:00:00 16,1 9,9 18,5 11,9 12,7 14,3 8 4 13 7 Z 1023,7 10 60 0,0
17.10.2017 10:00:00 14,4 9,4 12,4 10,4 12,7 14,3 4 2 5 3 - 1024,0 10 59 0,0
17.10.2017 09:00:00 11,2 8,5 7,7 10,0 12,9 14,3 2 1 2 1 - 1024,5 10 33 0,0
17.10.2017 08:00:00 10,2 7,7 6,2 10,1 13,1 14,3 4 2 5 3 - 1024,4 10 0 0,0
17.10.2017 07:00:00 10,5 7,9 6,0 10,4 13,3 14,3 5 3 9 5 Z 1024,3 10 0 0,0
17.10.2017 06:00:00 11,3 8,0 6,7 10,8 13,5 14,3 2 1 8 4 - 1023,9 10 0 0,0
17.10.2017 05:00:00 12,1 8,5 8,0 11,2 13,7 14,3 4 2 11 6 - 1024,0 10 0 0,0
17.10.2017 04:00:00 13,9 9,1 10,3 11,5 13,9 14,3 2 1 11 6 - 1023,9 10 0 0,0
17.10.2017 03:00:00 15,3 9,3 11,5 11,8 14,1 14,3 2 1 16 9 - 1023,9 10 0 0,0
17.10.2017 02:00:00 15,8 9,5 12,2 12,0 14,4 14,3 11 6 16 9 ZZW 1023,9 10 0 0,0
17.10.2017 01:00:00 14,9 10,3 8,9 12,3 14,7 14,3 9 5 13 7 Z 1024,1 10 0 0,0
17.10.2017 00:00:00 14,8 10,3 9,0 12,8 15,0 14,3 11 6 13 7 ZZW 1024,4 10 0 0,0
16.10.2017 23:00:00 12,6 9,5 8,1 13,5 15,3 14,3 5 3 8 4 OZO 1024,6 10 0 0,0
16.10.2017 22:00:00 14,7 11,0 8,8 14,3 15,6 14,3 5 3 9 5 O 1024,2 10 0 0,0
16.10.2017 21:00:00 16,1 11,1 10,1 15,2 15,8 14,3 4 2 11 6 - 1023,8 10 0 0,0
16.10.2017 20:00:00 18,1 11,0 13,3 16,4 16,0 14,3 9 5 14 8 ZO 1023,5 10 0 0,0
16.10.2017 19:00:00 17,8 11,8 12,0 17,9 16,1 14,3 8 4 11 6 O 1023,3 10 32 0,0
16.10.2017 18:00:00 21,0 12,1 17,0 19,5 15,9 14,3 5 3 9 5 OZO 1022,8 10 60 0,0
16.10.2017 17:00:00 22,8 9,8 22,3 20,7 15,5 14,3 8 4 13 7 ZZO 1023,0 10 60 0,0
16.10.2017 16:00:00 23,1 10,2 24,2 20,7 14,9 14,3 8 4 15 8 Z 1023,3 10 60 0,0
16.10.2017 15:00:00 22,6 11,5 24,3 20,0 14,3 14,3 9 5 16 9 ZW 1023,9 10 60 0,0
16.10.2017 14:00:00 21,5 10,9 24,0 18,8 13,7 14,3 11 6 18 10 ZZW 1024,4 10 60 0,0
16.10.2017 13:00:00 20,9 12,3 24,0 17,0 13,1 14,3 9 5 15 8 ZZW 1025,0 10 60 0,0
16.10.2017 12:00:00 19,6 11,8 22,1 14,9 12,8 14,3 9 5 16 9 Z 1025,2 10 60 0,0
16.10.2017 11:00:00 17,5 12,1 19,5 12,7 12,6 14,3 15 8 22 12 WZW 1025,3 10 60 0,0
16.10.2017 10:00:00 15,4 11,8 13,3 11,0 12,6 14,2 11 6 15 8 ZW 1025,6 10 57 0,0
16.10.2017 09:00:00 13,0 11,5 10,7 10,4 12,8 14,2 5 3 9 5 ZZO 1025,5 10 1 0,0
16.10.2017 08:00:00 11,7 10,4 7,8 10,5 12,9 14,2 2 1 9 5 - 1025,5 10 0 0,0
16.10.2017 07:00:00 12,4 10,7 8,6 10,7 13,0 14,2 5 3 9 5 WZW 1025,4 10 0 0,0
16.10.2017 06:00:00 12,8 10,7 9,7 10,8 13,2 14,2 4 2 15 8 - 1025,4 10 0 0,0
16.10.2017 05:00:00 14,1 11,0 10,7 10,8 13,3 14,2 8 4 13 7 ZZW 1025,1 10 0 0,0
16.10.2017 04:00:00 13,0 11,4 9,2 10,9 13,6 14,2 4 2 9 5 - 1025,5 10 0 0,0
16.10.2017 03:00:00 12,1 11,4 7,4 11,2 13,8 14,2 2 1 5 3 - 1026,1 10 0 0,0
16.10.2017 02:00:00 12,0 11,0 8,1 11,7 14,0 14,2 2 1 8 4 - 1026,1 10 0 0,0
16.10.2017 01:00:00 12,8 10,6 9,0 12,2 14,3 14,2 5 3 8 4 W 1025,9 10 0 0,0
16.10.2017 00:00:00 14,0 11,6 10,2 12,5 14,6 14,2 4 2 10 6 - 1025,6 10 0 0,0
15.10.2017 23:00:00 12,2 11,5 8,0 13,0 14,9 14,2 8 4 9 5 ZZW 1025,7 10 0 0,0
15.10.2017 22:00:00 13,6 12,0 9,0 13,7 15,2 14,2 9 5 11 6 Z 1025,3 10 0 0,0
15.10.2017 21:00:00 14,1 12,5 8,4 14,7 15,5 14,2 5 3 8 4 WZW 1025,0 10 0 0,0
15.10.2017 20:00:00 15,4 11,7 10,0 15,9 15,7 14,2 8 4 10 5 ZZW 1024,7 10 0 0,0
15.10.2017 19:00:00 16,7 11,7 12,0 17,4 15,7 14,2 4 2 11 6 - 1023,9 10 34 0,0
15.10.2017 18:00:00 20,3 11,4 15,0 19,1 15,5 14,3 8 4 16 9 ZZO 1023,3 10 60 0,0
15.10.2017 17:00:00 21,8 12,3 21,5 20,3 15,1 14,3 11 6 25 14 Z 1023,4 10 60 0,0
15.10.2017 16:00:00 21,7 12,0 23,2 20,4 14,5 14,3 11 6 22 12 Z 1024,0 10 60 0,0
15.10.2017 15:00:00 21,1 12,1 24,9 19,7 13,8 14,3 13 7 19 10 Z 1024,4 10 60 0,0
15.10.2017 14:00:00 19,7 12,4 22,6 18,3 13,1 14,3 8 4 15 8 Z 1025,2 10 60 0,0
15.10.2017 13:00:00 18,9 12,7 21,8 16,4 12,6 14,2 8 4 20 11 ZZW 1025,8 10 60 0,0
15.10.2017 12:00:00 18,2 13,4 18,3 14,1 12,2 14,2 5 3 13 7 - 1026,4 10 60 0,0
15.10.2017 11:00:00 15,0 13,0 15,8 11,5 12,0 14,2 8 4 9 5 O 1026,9 10 60 0,0
15.10.2017 10:00:00 12,9 12,9 12,0 9,6 12,1 14,2 4 2 5 3 O 1027,2 7 60 0,0
15.10.2017 09:00:00 9,1 9,1 7,5 9,2 12,3 14,2 4 2 5 3 O 1027,4 1,3 27 0,0
15.10.2017 08:00:00 7,9 7,9 5,0 9,3 12,5 14,2 5 3 5 3 OZO 1027,3 0,3 0 0,0
15.10.2017 07:00:00 9,7 9,7 4,6 9,6 12,7 14,2 4 2 8 4 - 1026,7 10 0 0,0
15.10.2017 06:00:00 10,0 10,0 5,3 10,0 12,9 14,2 4 2 8 4 - 1026,6 10 0 0,0
15.10.2017 05:00:00 9,6 9,6 7,3 10,3 13,1 14,2 5 3 8 4 ONO 1026,6 10 0 0,0
15.10.2017 04:00:00 10,1 10,1 6,6 10,6 13,3 14,2 4 2 8 4 ONO 1027,0 10 0 0,0
15.10.2017 03:00:00 10,8 10,8 6,4 10,9 13,6 14,2 2 1 10 6 ONO 1027,4 9 0 0,0
15.10.2017 02:00:00 10,8 10,7 8,6 11,3 13,8 14,2 8 4 11 6 O 1027,5 2,4 0 0,0
15.10.2017 01:00:00 11,2 11,0 8,0 11,8 14,1 14,2 5 3 9 5 O 1027,5 2,5 0 0,0
15.10.2017 00:00:00 12,0 11,4 9,4 12,3 14,4 14,2 9 5 11 6 ONO 1027,6 5 0 0,0
14.10.2017 23:00:00 11,4 10,8 8,9 12,9 14,7 14,2 8 4 9 5 O 1027,8 10 0 0,0
14.10.2017 22:00:00 12,7 11,9 9,2 13,7 15,0 14,2 5 3 9 5 O 1027,7 10 0 0,0
14.10.2017 21:00:00 13,0 11,4 9,5 14,6 15,2 14,2 5 3 5 3 O 1027,5 10 0 0,0
14.10.2017 20:00:00 14,0 11,8 10,2 15,8 15,4 14,2 5 3 5 3 OZO 1027,2 10 0 0,0
14.10.2017 19:00:00 16,5 12,8 11,9 17,2 15,4 14,3 4 2 5 3 O 1026,6 10 40 0,0
14.10.2017 18:00:00 19,8 11,9 16,1 18,8 15,2 14,3 5 3 10 5 OZO 1026,1 10 59 0,0
14.10.2017 17:00:00 20,7 12,3 21,1 19,9 14,7 14,3 5 3 11 6 - 1026,0 10 60 0,0
14.10.2017 16:00:00 20,7 12,4 22,6 19,8 14,1 14,3 8 4 13 7 ZO 1026,3 10 60 0,0
14.10.2017 15:00:00 20,2 12,9 22,9 18,9 13,5 14,3 5 3 16 9 ZO 1026,7 10 60 0,0
14.10.2017 14:00:00 19,2 13,1 21,9 17,5 12,9 14,3 9 5 16 9 O 1027,3 10 60 0,0
14.10.2017 13:00:00 18,1 12,3 20,6 15,9 12,3 14,3 11 6 18 10 ONO 1028,1 10 60 0,0
14.10.2017 12:00:00 17,9 12,4 20,2 14,0 11,9 14,3 9 5 13 7 O 1028,3 10 60 0,0
14.10.2017 11:00:00 15,7 13,0 16,6 11,3 11,7 14,2 9 5 12 6 O 1028,5 10 60 0,0
14.10.2017 10:00:00 12,8 12,8 11,9 9,3 11,8 14,2 4 2 8 4 - 1028,9 10 60 0,0
14.10.2017 09:00:00 8,9 8,9 7,5 8,9 12,0 14,2 4 2 4 2 - 1029,1 8 42 0,0
14.10.2017 08:00:00 7,4 7,4 4,4 9,0 12,1 14,2 0 0 5 3 N 1029,0 0,4 0 0,0
14.10.2017 07:00:00 8,9 8,9 5,1 9,3 12,3 14,2 5 3 9 5 NO 1028,6 0,9 0 0,0
14.10.2017 06:00:00 9,0 9,0 6,3 9,5 12,5 14,2 8 4 8 4 O 1028,4 0,9 0 0,0
14.10.2017 05:00:00 8,0 8,0 5,2 9,8 12,7 14,2 2 1 5 3 - 1028,7 3,0 0 0,0
14.10.2017 04:00:00 9,6 9,6 5,6 10,2 12,9 14,2 4 2 8 4 - 1028,6 5 0 0,0
14.10.2017 03:00:00 9,8 9,8 6,9 10,5 13,2 14,2 5 3 8 4 ONO 1028,8 0,8 0 0,0
14.10.2017 02:00:00 9,7 9,7 6,4 10,9 13,4 14,2 5 3 5 3 ONO 1028,7 8 0 0,0
14.10.2017 01:00:00 10,2 10,0 7,7 11,3 13,6 14,2 5 3 5 3 O 1028,3 4,2 0 0,0
14.10.2017 00:00:00 10,8 10,5 7,3 11,8 13,9 14,2 2 1 5 3 - 1028,3 10 0 0,0
13.10.2017 23:00:00 11,3 11,0 7,6 12,4 14,1 14,3 4 2 5 3 O 1028,2 10 0 0,0
13.10.2017 22:00:00 12,2 11,8 9,4 13,0 14,4 14,3 4 2 5 3 - 1027,9 10 0 0,0
13.10.2017 21:00:00 12,3 11,8 9,7 13,8 14,6 14,3 4 2 5 3 - 1027,8 10 0 0,0
13.10.2017 20:00:00 13,3 12,3 10,1 14,7 14,8 14,3 5 3 5 3 O 1027,7 10 0 0,0
13.10.2017 19:00:00 14,7 12,5 10,9 16,0 14,8 14,3 2 1 4 2 - 1027,2 10 27 0,0
13.10.2017 18:00:00 18,3 11,8 16,1 17,2 14,6 14,3 4 2 8 4 - 1026,5 10 30 0,0
13.10.2017 17:00:00 17,7 13,0 18,2 17,7 14,3 14,3 8 4 11 6 W 1026,6 10 10 0,0
13.10.2017 16:00:00 19,0 12,9 22,0 17,4 13,9 14,3 8 4 11 6 - 1026,8 10 24 0,0
13.10.2017 15:00:00 17,5 13,8 18,6 16,8 13,6 14,3 4 2 11 6 - 1027,2 10 0 0,0
13.10.2017 14:00:00 16,5 13,6 18,6 16,1 13,2 14,3 8 4 16 9 ZW 1027,6 10 1 0,0
13.10.2017 13:00:00 15,1 13,9 16,5 14,6 13,0 14,3 5 3 13 7 ZZW 1028,1 10 0 0,0
13.10.2017 12:00:00 13,7 13,7 14,5 13,8 12,8 14,3 8 4 16 9 WZW 1028,5 9 0 0,0

tt = temperatuur
td = dauwpunt
tt 5cm = temperatuur 5cm
tt -5cm = temperatuur -5cm
tt -20cm = temperatuur -20cm
tt -100cm = temperatuur -100cm
ff = windsnelheid
fx = windstoten
dd = windrichting
ppp = luchtdruk
vv = zicht
sd = Zonneschijnduur
rr = neerslag

Weerstations in de omgeving